Find Starlink 11550

NORAD ID: 63052 Int'l Des: 2025-035 Owner: SPXS Country: US Constellation: starlink operational
LEOCIRCULAR

現在のビュー

3D地球を読み込み中...

About Starlink 11550

Starlink 11550 (NORAD 63052) is a starlink constellation satellite (v2 mini d2c) launched Feb 21, 2025 by SPXS of US. It operates in LEO, CIRCULAR orbit with a mass of 960.00 kg.

Starlink 11550について

説明を読み込み中...

次回通過

Passes for default location (London). Set your location on the main map for personalized predictions.

高度履歴

Loading altitude history...

軌道要素

1 63052U 25035A 26200.30929928 .00113853 00000-0 87635-3 0 9996
2 63052 42.9986 301.7686 0001382 244.5399 115.5325 15.70903122 81929
Epoch: Jul 19, 2026 • Age: 8 hours

現在のステータス

高度 356.9 km
遠地点 / 近地点 N/A
速度 7.70 km/s
衛星直下点 26.29°N, 165.83°E
打ち上げ日 Feb 21, 2025
運用期間 1.4 years
タイプ internet

技術仕様

分類 Payload
質量 960.00 kg
乾燥質量 910.00 kg
総質量 960.00 kg
長さ 0.30 m
直径 4.10 m
スパン 29.00 m
形状 Box + pan
製造者 SPXS
バスタイプ Starlink V2MD
フェーズステータス In Orbit
所有者/国 SPXS/US

Most Searched